This demonstration page uses our WeatherBlox Daily Observations layout. Learn more.

Left ArrowRight Arrow

Hourly Observations for February 1, 2016

Temp ( °F °C ) Dew Point ( °F °C ) Humidity (%) Winds ( mph kmh ) Pressure ( in mb ) Visibility ( mi km ) Precip ( " mm )
12:53 am 00:53 Clear 44 6.7 21 -6.1 40 40 NW 6 9 30.06 1018 10 16 0.00 0.00
1:53 am 01:53 Clear 40 4.4 23 -5 51 51 NNW 7 11 30.08 1019 10 16 0.00 0.00
2:53 am 02:53 Clear 39 3.9 23 -5 53 53 NNW 6 9 30.09 1019 10 16 0.00 0.00
3:53 am 03:53 Clear 37 2.8 24 -4.4 59 59 Calm 30.11 1020 10 16 0.00 0.00
4:53 am 04:53 Clear 34 1.1 24 -4.4 67 67 N 5 7 30.14 1021 10 16 0.00 0.00
5:53 am 05:53 Clear 35 1.7 24 -4.4 64 64 NW 8 13 30.16 1021 10 16 0.00 0.00
6:53 am 06:53 Clear 39 3.9 24 -4.4 55 55 N 12 19 30.17 1022 10 16 0.00 0.00
7:53 am 07:53 Sunny 38 3.3 25 -3.9 60 60 NNW 7 11 30.20 1023 10 16 0.00 0.00
8:53 am 08:53 Sunny 43 6.1 26 -3.3 51 51 NNW 7 11 30.22 1023 10 16 0.00 0.00
9:53 am 09:53 Sunny 49 9.4 25 -3.9 39 39 N 9 15 30.23 1024 10 16 0.00 0.00
10:53 am 10:53 Sunny 51 10.6 24 -4.4 35 35 N 12 19 30.24 1024 10 16 0.00 0.00
11:53 am 11:53 Sunny 53 11.7 25 -3.9 34 34 VRB 7 11 30.22 1023 10 16 0.00 0.00
12:53 pm 12:53 Sunny 55 12.8 24 -4.4 30 30 VRB 3 6 30.19 1022 10 16 0.00 0.00
1:53 pm 13:53 Sunny 55 12.8 21 -6.1 26 26 N 7 11 30.17 1022 10 16 0.00 0.00
2:53 pm 14:53 Sunny 56 13.3 23 -5 28 28 NE 3 6 30.17 1022 10 16 0.00 0.00
3:53 pm 15:53 Sunny 54 12 21 -6 28 28 N 17 28 29.85 1011 10 16 0.00 0.00
4:53 pm 16:53 Sunny 55 12.8 28 -2.2 35 35 Calm 30.17 1022 10 16 0.00 0.00
5:53 pm 17:53 Clear 47 8.3 28 -2.2 48 48 WSW 3 6 30.19 1022 10 16 0.00 0.00
6:53 pm 18:53 Clear 46 7.8 27 -2.8 47 47 W 6 9 30.19 1022 10 16 0.00 0.00
7:53 pm 19:53 Clear 45 7.2 30 -1.1 56 56 NW 5 7 30.19 1022 10 16 0.00 0.00
8:53 pm 20:53 Clear 43 6.1 29 -1.7 58 58 NNW 5 7 30.19 1023 10 16 0.00 0.00
9:53 pm 21:53 Clear 42 5.6 30 -1.1 62 62 Calm 30.19 1022 10 16 0.00 0.00
10:53 pm 22:53 Mostly Clear 41 5 31 -0.6 67 67 Calm 30.19 1022 10 16 0.00 0.00
11:53 pm 23:53 Cloudy 41 5 31 -0.6 67 67 Calm 30.19 1022 10 16 0.00 0.00

Powered by AerisWeather